Arctic Village, AK

3:37 AM AKDT on July 26, 2017 (GMT -0800)
Arctic Village

Weather History for PARC - October, 2011

Change the Weather History Date:

Tuesday, October 18, 2011

  Actual Average Record
Temperature  
Mean Temperature 27 °F -  
Max Temperature 30 °F 17 °F 35 °F (2013)
Min Temperature 24 °F -6 °F -25 °F (2008)
Degree Days  
Heating Degree Days 38    
Moisture  
Dew Point 20 °F    
Average Humidity 76    
Maximum Humidity 80    
Minimum Humidity 69    
Precipitation  
Precipitation 0.00 in - - ()
Sea Level Pressure  
Sea Level Pressure 29.69 in    
Wind  
Wind Speed 6 mph (ENE)    
Max Wind Speed 10 mph    
Max Gust Speed -    
Visibility 8 miles    
Events      
Averages and records for this station are not official NWS values.
T = Trace of Precipitation, MM = Missing Value Source: NWS Daily Summary

Daily Weather History Graph

Daily Weather History Graph

Search for Another Location

Airport or City:

Trip Planner

Search our weather history database for the weather conditions in past years. The results will help you decide how hot, cold, wet, or windy it might be!

Date:

Astronomy

Oct. 18, 2011 Rise Set
Actual Time 8:57 AM AKDT 5:55 PM AKDT
Civil Twilight 7:59 AM AKDT 6:53 PM AKDT
Nautical Twilight 6:54 AM AKDT 7:58 PM AKDT
Astronomical Twilight 5:48 AM AKDT 9:04 PM AKDT
Moon 8:28 PM AKDT (10/18) 5:19 PM AKDT (10/18)
Length of Visible Light 10h 54m
Length of Day
8h 57m
Waning Gibbous, 63% of the Moon is Illuminated
Oct 18
Waning Gibbous
Oct 19
Last Quarter
Oct 26
New
Nov 2
First Quarter
Nov 10
Full

Hourly Weather History & Observations

Time (AKDT) Temp. Windchill Dew Point Humidity Pressure Visibility Wind Dir Wind Speed Gust Speed Precip Events Conditions
12:16 AM 26.6 °F 19.1 °F 21.2 °F 80% 29.81 in 7.0 mi NNE 6.9 mph - N/A   Overcast
12:36 AM 26.6 °F 18.2 °F 21.2 °F 80% 29.81 in 3.0 mi NE 8.1 mph - N/A   Overcast
12:56 AM 26.6 °F 16.8 °F 21.2 °F 80% 29.80 in 2.5 mi NE 10.4 mph - N/A   Overcast
1:16 AM 26.6 °F 19.1 °F 21.2 °F 80% 29.80 in 3.0 mi NNE 6.9 mph - N/A   Overcast
1:36 AM 26.6 °F 18.2 °F 19.4 °F 74% 29.80 in 10.0 mi NNE 8.1 mph - N/A   Overcast
1:56 AM 26.6 °F 19.1 °F 19.4 °F 74% 29.79 in 7.0 mi NNE 6.9 mph - N/A   Overcast
2:16 AM 26.6 °F 19.1 °F 19.4 °F 74% 29.79 in 2.5 mi NNE 6.9 mph - N/A   Overcast
2:36 AM 26.6 °F 19.1 °F 19.4 °F 74% 29.78 in 2.5 mi NE 6.9 mph - N/A   Overcast
2:56 AM 26.6 °F 19.1 °F 19.4 °F 74% 29.78 in 5.0 mi NE 6.9 mph - N/A   Overcast
3:16 AM 26.6 °F 20.0 °F 19.4 °F 74% 29.77 in 8.0 mi NE 5.8 mph - N/A   Overcast
3:36 AM 26.6 °F 20.0 °F 19.4 °F 74% 29.77 in 9.0 mi NE 5.8 mph - N/A   Overcast
3:56 AM 26.6 °F 20.0 °F 19.4 °F 74% 29.77 in 10.0 mi ENE 5.8 mph - N/A   Overcast
4:16 AM 26.6 °F 20.0 °F 19.4 °F 74% 29.76 in 7.0 mi ENE 5.8 mph - N/A   Overcast
4:36 AM 26.6 °F 20.0 °F 19.4 °F 74% 29.75 in 10.0 mi East 5.8 mph - N/A   Overcast
4:56 AM 24.8 °F 19.1 °F 19.4 °F 80% 29.75 in 10.0 mi East 4.6 mph - N/A   Overcast
5:16 AM 24.8 °F 19.1 °F 19.4 °F 80% 29.74 in 10.0 mi East 4.6 mph - N/A   Overcast
5:36 AM 24.8 °F 17.9 °F 19.4 °F 80% 29.73 in 10.0 mi ENE 5.8 mph - N/A   Overcast
5:56 AM 24.8 °F 17.9 °F 19.4 °F 80% 29.73 in 10.0 mi East 5.8 mph - N/A   Overcast
6:16 AM 24.8 °F 19.1 °F 19.4 °F 80% 29.73 in 10.0 mi East 4.6 mph - N/A   Overcast
6:36 AM 24.8 °F 16.9 °F 19.4 °F 80% 29.72 in 10.0 mi East 6.9 mph - N/A   Overcast
6:56 AM 24.8 °F 19.1 °F 19.4 °F 80% 29.72 in 10.0 mi ENE 4.6 mph - N/A   Overcast
7:16 AM 24.8 °F 16.9 °F 19.4 °F 80% 29.71 in 10.0 mi East 6.9 mph - N/A   Overcast
7:36 AM 24.8 °F 17.9 °F 19.4 °F 80% 29.71 in 10.0 mi East 5.8 mph - N/A   Overcast
7:56 AM 24.8 °F 17.9 °F 19.4 °F 80% 29.71 in 10.0 mi East 5.8 mph - N/A   Overcast
8:16 AM 24.8 °F 17.9 °F 19.4 °F 80% 29.70 in 10.0 mi East 5.8 mph - N/A   Overcast
8:36 AM 24.8 °F 17.9 °F 19.4 °F 80% 29.69 in 10.0 mi East 5.8 mph - N/A   Overcast
8:56 AM 24.8 °F 20.5 °F 19.4 °F 80% 29.69 in 10.0 mi ENE 3.5 mph - N/A   Overcast
9:16 AM 24.8 °F 16.9 °F 17.6 °F 74% 29.68 in 10.0 mi East 6.9 mph - N/A   Overcast
9:36 AM 24.8 °F 16.9 °F 17.6 °F 74% 29.68 in 10.0 mi East 6.9 mph - N/A   Overcast
9:56 AM 24.8 °F 17.9 °F 19.4 °F 80% 29.68 in 5.0 mi East 5.8 mph - N/A   Overcast
10:16 AM 24.8 °F 16.9 °F 19.4 °F 80% 29.67 in 4.0 mi NE 6.9 mph - N/A   Overcast
10:36 AM 24.8 °F 16.9 °F 19.4 °F 80% 29.67 in 5.0 mi ENE 6.9 mph - N/A   Overcast
10:56 AM 24.8 °F 16.9 °F 19.4 °F 80% 29.66 in 10.0 mi East 6.9 mph - N/A   Overcast
11:16 AM 24.8 °F 16.1 °F 19.4 °F 80% 29.66 in 10.0 mi East 8.1 mph - N/A   Overcast
11:36 AM 26.6 °F 18.2 °F 21.2 °F 80% 29.65 in 2.0 mi ENE 8.1 mph - N/A   Overcast
11:56 AM 26.6 °F 19.1 °F 21.2 °F 80% 29.65 in 8.0 mi ENE 6.9 mph - N/A   Overcast
12:16 PM 28.4 °F 19.7 °F 21.2 °F 74% 29.64 in 10.0 mi East 9.2 mph - N/A   Overcast
12:36 PM 28.4 °F 22.2 °F 21.2 °F 74% 29.64 in 10.0 mi East 5.8 mph - N/A   Overcast
12:56 PM 26.6 °F 19.1 °F 19.4 °F 74% 29.64 in 10.0 mi East 6.9 mph - N/A   Overcast
1:16 PM 26.6 °F 19.1 °F 19.4 °F 74% 29.63 in 10.0 mi East 6.9 mph - N/A   Overcast
1:36 PM 26.6 °F 22.6 °F 21.2 °F 80% 29.63 in 10.0 mi East 3.5 mph - N/A   Overcast
1:56 PM 28.4 °F - 21.2 °F 74% 29.63 in 10.0 mi Calm Calm - N/A   Overcast
2:16 PM 28.4 °F - 21.2 °F 74% 29.63 in 10.0 mi Calm Calm - N/A   Overcast
2:36 PM 30.2 °F 26.7 °F 21.2 °F 69% 29.64 in 10.0 mi East 3.5 mph - N/A   Overcast
2:56 PM 30.2 °F 23.4 °F 21.2 °F 69% 29.63 in 10.0 mi East 6.9 mph - N/A   Overcast
3:16 PM 30.2 °F 24.3 °F 21.2 °F 69% 29.63 in 10.0 mi ENE 5.8 mph - N/A   Overcast
3:36 PM 30.2 °F 25.4 °F 23.0 °F 75% 29.63 in 10.0 mi East 4.6 mph - N/A   Overcast
3:56 PM 30.2 °F 25.4 °F 21.2 °F 69% 29.62 in 10.0 mi ENE 4.6 mph - N/A   Overcast
4:16 PM 30.2 °F 23.4 °F 21.2 °F 69% 29.62 in 10.0 mi East 6.9 mph - N/A   Overcast
4:36 PM 30.2 °F 24.3 °F 21.2 °F 69% 29.61 in 10.0 mi East 5.8 mph - N/A   Overcast
4:56 PM 28.4 °F 22.2 °F 21.2 °F 74% 29.61 in 10.0 mi ENE 5.8 mph - N/A   Overcast
5:16 PM 28.4 °F 23.3 °F 21.2 °F 74% 29.61 in 10.0 mi East 4.6 mph - N/A   Overcast
5:36 PM 28.4 °F 23.3 °F 21.2 °F 74% 29.61 in 7.0 mi East 4.6 mph - N/A   Overcast
5:56 PM 28.4 °F 23.3 °F 21.2 °F 74% 29.61 in 2.0 mi ENE 4.6 mph - N/A   Overcast
6:16 PM 28.4 °F 22.2 °F 21.2 °F 74% 29.61 in 2.5 mi ENE 5.8 mph - N/A   Overcast
6:36 PM 28.4 °F 23.3 °F 23.0 °F 80% 29.61 in 10.0 mi NE 4.6 mph - N/A   Overcast
6:56 PM 28.4 °F 22.2 °F 21.2 °F 74% 29.61 in 10.0 mi ENE 5.8 mph - N/A   Overcast
7:16 PM 28.4 °F 21.2 °F 21.2 °F 74% 29.60 in 10.0 mi East 6.9 mph - N/A   Overcast
7:36 PM 28.4 °F 21.2 °F 21.2 °F 74% 29.60 in 10.0 mi ENE 6.9 mph - N/A   Overcast
7:56 PM 28.4 °F 20.4 °F 21.2 °F 74% 29.60 in 10.0 mi ENE 8.1 mph - N/A   Overcast
8:16 PM 26.6 °F 19.1 °F 21.2 °F 80% 29.60 in 10.0 mi ENE 6.9 mph - N/A   Overcast
8:36 PM 26.6 °F 20.0 °F 21.2 °F 80% 29.60 in 10.0 mi East 5.8 mph - N/A   Mostly Cloudy
8:56 PM 26.6 °F 20.0 °F 21.2 °F 80% 29.60 in 9.0 mi East 5.8 mph - N/A   Overcast
9:16 PM 26.6 °F 20.0 °F 21.2 °F 80% 29.60 in 10.0 mi East 5.8 mph - N/A   Mostly Cloudy
9:36 PM 26.6 °F 22.6 °F 21.2 °F 80% 29.60 in 6.0 mi ENE 3.5 mph - N/A   Overcast
9:56 PM 26.6 °F 22.6 °F 21.2 °F 80% 29.61 in 10.0 mi ENE 3.5 mph - N/A   Overcast
10:16 PM 26.6 °F 21.2 °F 21.2 °F 80% 29.60 in 7.0 mi ENE 4.6 mph - N/A   Overcast
10:36 PM 26.6 °F 21.2 °F 21.2 °F 80% 29.60 in 9.0 mi NE 4.6 mph - N/A   Overcast
10:56 PM 26.6 °F 22.6 °F 21.2 °F 80% 29.60 in 10.0 mi ENE 3.5 mph - N/A   Overcast
11:16 PM 26.6 °F - 21.2 °F 80% 29.60 in 10.0 mi Calm Calm - N/A   Overcast
11:36 PM 26.6 °F 21.2 °F 21.2 °F 80% 29.60 in 10.0 mi East 4.6 mph - N/A   Overcast
11:56 PM 26.6 °F 22.6 °F 21.2 °F 80% 29.60 in 10.0 mi ENE 3.5 mph - N/A   Overcast